Tracking 18852 objects as of 23-Nov-2017
HD Live streaming from Space Station
objects crossing your sky now

OV1-9

Track OV1-9 now!
10-day predictions
OV1-9 is classified as:


NORAD ID: 2610
Int'l Code: 1966-111A
Perigee: 482.7 km
Apogee: 4,545.9 km
Inclination: 99.1 °
Period: 138.9 minutes
Semi major axis: 8885 km
RCS: 0.6636 m2 (medium)
Launch date: December 11, 1966
Source: United States (US)
Launch site: AIR FORCE WESTERN TEST RANGE (AFWTR)
aabbcc
Your satellite tracking list
Your tracking list is empty




NASA's NSSDC Master Catalog

Two Line Element Set (TLE):
1  2610U 66111A   17326.21761514 +.00000072 +00000-0 +32133-4 0  9995
2  2610 099.1216 053.1785 2286457 103.9265 282.4757 10.36557201908550
Source of the keplerian elements: AFSPC